Content
SEND FEEDBACK

Daily
Averages
Monthly
Summary
United Kingdom

LONDON, ENGLAND


Home > Europe > United Kingdom > England
Elevation: 203 feet     Latitude: 51 09N     Longitude: 000 11W

WEATHER
 
SELECT A DAY
Number of Records: 298,624;   Date Range: 7/1/96 - 11/22/14
 
SHARE

PRINT THIS DATA

[ ← Previous Day ]
WEATHER ALMANAC - FEBRUARY 28, 2013
[ Next Day → ]
[ °C ]   °F
Weather ElementAverageHighLow
Temperature39.1 °F42.8 °F (2:20 pm)35.6 °F (11:50 pm)
Dewpoint33.3 °F35.6 °F (2:50 pm)32 °F (12:50 am)
Humidity80 %87 % (2:20 am)70 % (2:20 pm)
Barometer30.38 in30.45 in (12:50 am)30.33 in (2:50 pm)
Wind Speed12.8 mph18.4 mph (11:50 am)
Weather ElementAverage
Visibility6.2 mi
Wind DirectionNE (42.8 °)

Weather ElementTotal
Precipitation---
Heating Degree Days25.8 (Base 65)
Averaged from 46 records on February 28, 2013
WEATHER CONDITIONS BREAKOUT
WIND DIRECTION BREAKOUT
WEATHER BY HOUR - FEBRUARY 28, 2013
[ °C ]   °F
Local TimeTemperatureDewpointHumidityBarometerVisibilityWind DirectionWind SpeedGust SpeedPrecipitationEventsConditions
12:50 AM37.4 °F32.0 °F81 %30.45 in6.2 miNE (40°)11.5 mphMostly Cloudy
1:20 AM37.4 °F32.0 °F81 %30.45 in6.2 miNE (40°)11.5 mphMostly Cloudy
1:50 AM37.4 °F32.0 °F81 %30.45 in6.2 miNE (40°)9.2 mphMostly Cloudy
2:20 AM37.4 °F33.8 °F87 %30.42 in6.2 miNE (40°)9.2 mphMostly Cloudy
2:50 AM37.4 °F33.8 °F87 %30.42 in6.2 miNNE (30°)9.2 mphOvercast
3:20 AM37.4 °F33.8 °F87 %30.39 in6.2 miNNE (30°)9.2 mphMostly Cloudy
4:20 AM37.4 °F33.8 °F87 %30.39 in6.2 miNNE (30°)9.2 mphOvercast
4:50 AM37.4 °F33.8 °F87 %30.39 in6.2 miNNE (30°)9.2 mphOvercast
5:20 AM37.4 °F32.0 °F81 %30.39 in6.2 miNNE (20°)8.1 mphOvercast
5:50 AM37.4 °F32.0 °F81 %30.39 in6.2 miNorth (10°)9.2 mphMostly Cloudy
6:20 AM37.4 °F32.0 °F81 %30.39 in6.2 miNNE (20°)9.2 mphMostly Cloudy
6:50 AM37.4 °F32.0 °F81 %30.39 in6.2 miNNE (20°)11.5 mphMostly Cloudy
7:20 AM37.4 °F32.0 °F81 %30.39 in6.2 miNNE (20°)10.4 mphMostly Cloudy
7:50 AM37.4 °F32.0 °F81 %30.39 in6.2 miNNE (30°)8.1 mphMostly Cloudy
8:20 AM37.4 °F33.8 °F87 %30.39 in6.2 miNNE (30°)9.2 mphMostly Cloudy
8:50 AM39.2 °F33.8 °F81 %30.39 in6.2 miNNE (30°)9.2 mphMostly Cloudy
9:20 AM39.2 °F33.8 °F81 %30.39 in6.2 miNNE (30°)11.5 mphMostly Cloudy
9:50 AM39.2 °F33.8 °F81 %30.39 in6.2 miNNE (30°)13.8 mphMostly Cloudy
10:20 AM41.0 °F33.8 °F76 %30.39 in6.2 miNE (40°)15.0 mphMostly Cloudy
10:50 AM41.0 °F33.8 °F76 %30.39 in6.2 miNE (40°)15.0 mphMostly Cloudy
11:20 AM41.0 °F33.8 °F76 %30.39 in6.2 miNE (50°)13.8 mphMostly Cloudy
11:50 AM41.0 °F33.8 °F76 %30.36 in6.2 miNE (50°)18.4 mphMostly Cloudy
12:20 PM41.0 °F33.8 °F76 %30.36 in6.2 miNE (50°)16.1 mphMostly Cloudy
12:50 PM41.0 °F33.8 °F76 %30.36 in6.2 miNE (50°)18.4 mphMostly Cloudy
1:20 PM41.0 °F33.8 °F76 %30.36 in6.2 miENE (60°)15.0 mphMostly Cloudy
1:50 PM41.0 °F33.8 °F76 %30.36 in6.2 miNE (50°)12.7 mphMostly Cloudy
2:20 PM42.8 °F33.8 °F70 %30.36 in6.2 miNE (40°)15.0 mphMostly Cloudy
2:50 PM42.8 °F35.6 °F76 %30.33 in6.2 miNE (50°)13.8 mphMostly Cloudy
3:20 PM42.8 °F35.6 °F76 %30.33 in6.2 miNE (50°)13.8 mphMostly Cloudy
3:50 PM42.8 °F35.6 °F76 %30.33 in6.2 miNE (50°)13.8 mphScattered Clouds
4:20 PM41.0 °F33.8 °F76 %30.33 in6.2 miNE (50°)15.0 mphScattered Clouds
4:50 PM41.0 °F33.8 °F76 %30.33 in6.2 miENE (60°)12.7 mphScattered Clouds
5:20 PM41.0 °F33.8 °F76 %30.33 in6.2 miENE (60°)12.7 mphScattered Clouds
5:50 PM39.2 °F33.8 °F81 %30.33 in6.2 miENE (60°)12.7 mphScattered Clouds
6:20 PM39.2 °F33.8 °F81 %30.33 in6.2 miNE (50°)13.8 mphMostly Cloudy
6:50 PM39.2 °F33.8 °F81 %30.36 in6.2 miNE (50°)11.5 mphMostly Cloudy
7:20 PM39.2 °F33.8 °F81 %30.36 in6.2 miENE (60°)10.4 mphMostly Cloudy
7:50 PM39.2 °F33.8 °F81 %30.36 in6.2 miNE (50°)13.8 mphMostly Cloudy
8:20 PM39.2 °F33.8 °F81 %30.36 in6.2 miENE (60°)16.1 mphMostly Cloudy
8:50 PM39.2 °F32.0 °F75 %30.36 in6.2 miENE (60°)16.1 mphMostly Cloudy
9:20 PM39.2 °F33.8 °F81 %30.39 in6.2 miNE (50°)12.7 mphMostly Cloudy
9:50 PM37.4 °F32.0 °F81 %30.39 in6.2 miNE (50°)17.3 mphMostly Cloudy
10:20 PM37.4 °F32.0 °F81 %30.39 in6.2 miENE (60°)16.1 mphMostly Cloudy
10:50 PM37.4 °F32.0 °F81 %30.39 in6.2 miNE (40°)15.0 mphMostly Cloudy
11:20 PM37.4 °F32.0 °F81 %30.39 in6.2 miENE (60°)16.1 mphMostly Cloudy
11:50 PM35.6 °F32.0 °F87 %30.39 in6.2 miNE (50°)16.1 mphMostly Cloudy
Hourly data recorded from EGKK, located miles away from London, England







STORIES FROM OUR PARTNERS